Regional Weather Roundup
Issued by NWS

Home | Current Version | Previous Version | Text Only | Print | Product List | Glossary Off
Versions: 1 2 3 4 5 6 7 8 9 10 11 12 13 14 15 16 17 18 19 20 21 22 23 24 25 26 27 28 29 30 31 32 33 34 35 36 37 38 39 40 41 42 43 44 45 46 47 48 49 50

000
ASUS43 KMPX 021010
RWRMN
WEATHER ROUNDUP FOR MINNESOTA
NATIONAL WEATHER SERVICE TWIN CITIES/CHANHASSEN MN
500 AM CDT MON MAY 02 2016


NOTE: "FAIR" INDICATES FEW OR NO CLOUDS BELOW 12,000 FEET WITH NO
SIGNIFICANT WEATHER AND/OR OBSTRUCTIONS TO VISIBILITY. N/A MEANS
CURRENT SKY AND/OR WEATHER CONDITIONS ARE NOT AVAILABLE.

MNZ060>063-068>070-021100-
   Twin Cities Metro

CITY           SKY/WX    TMP DP  RH WIND       PRES   REMARKS
TWIN CITIES    CLEAR     43  36  76 CALM      30.11F
ST PAUL        CLEAR     41  36  82 CALM      30.12F
CRYSTAL        CLEAR     39  34  82 CALM      30.11S
BLAINE         CLEAR     37  37 100 CALM      30.11S
EDEN PRAIRIE   CLEAR     43  36  76 N5        30.10S
SOUTH ST PAUL  CLEAR     40  35  83 CALM      30.11F
LAKE ELMO      FAIR      36  34  93 CALM      30.12S
$$
MNZ001>005-007-008-013>017-022>024-027-028-021100-
   Northwest Minnesota

CITY           SKY/WX    TMP DP  RH WIND       PRES   REMARKS
BEMIDJI        PTCLDY    32  29  87 CALM      30.09S
HALLOCK        PTCLDY    43  28  56 SE9       30.05S
ROSEAU         CLOUDY    43  32  65 SE3       30.08S
WARROAD        MOCLDY    37  34  87 CALM      30.09S
THIEF RVR FALL CLOUDY    45  27  49 E5        30.08S
CROOKSTON      CLOUDY    46  34  61 S3        30.07F
FOSSTON        CLOUDY    36  27  69 CALM      30.09S
DETROIT LAKES  PTCLDY    43  36  75 CALM      30.09S
MOORHEAD       MOCLDY    43  34  70 SE3       30.09S
PARK RAPIDS    MOCLDY    39  31  72 CALM      30.08F
MAHNOMEN       FAIR      44  31  60 S3        30.08S
$$
MNZ006-009>011-018-025>026-021100-
   North Central Minnesota

CITY           SKY/WX    TMP DP  RH WIND       PRES   REMARKS
BAUDETTE       CLOUDY    38  32  79 E3        30.09R
FLAG ISLAND    CLOUDY    43  37  81 CALM      30.09R
INTL FALLS     CLEAR     28  25  88 CALM      30.10S
WASKISH        MOCLDY    36  34  93 CALM      30.09S
BIG FORK       CLEAR     28  27  93 CALM      30.10S
LONGVILLE      CLEAR     30  28  93 CALM      30.10S
GRAND RAPIDS   CLEAR     30  27  86 CALM      30.12R
CRANE LAKE     CLEAR     27  27 100 CALM      30.13S
ORR            PTCLDY    37  28  70 CALM      30.09S
COOK           CLEAR     28  27  93 CALM      30.11S
WALKER         FAIR      37  30  74 CALM      30.09S
$$
MNZ012-019>021-037-021100-
   Northeast Minnesota

CITY           SKY/WX    TMP DP  RH WIND       PRES   REMARKS
DULUTH         CLEAR     33  28  81 CALM      30.11F
ELY            CLEAR     28  27  93 CALM      30.11S
HIBBING        CLEAR     26  25  96 CALM      30.12R
EVELETH        CLEAR     30  30 100 CALM      30.13R
DULUTH HARBOR  CLEAR     36  34  93 S3        30.15S
TWO HARBORS    CLEAR     32  27  80 CALM      30.11S
SILVER BAY     CLEAR     28  27  93 CALM      30.12R
GRAND MARAIS     N/A     32  29  88 NW6       30.13S WCI  26
G MARAIS ARPRT CLEAR     27  25  93 CALM      30.12S
$$
MNZ029>031-032-039>041-046>048-054>057-064-021100-
   West Central Minnesota

CITY           SKY/WX    TMP DP  RH WIND       PRES   REMARKS
FERGUS FALLS   PTCLDY    39  34  81 S5        30.08S
WHEATON        CLOUDY    39  34  81 S6        30.11F
MORRIS         CLEAR     37  30  75 S6        30.10S
ALEXANDRIA     CLEAR     40  30  67 SW8       30.11F
ELBOW LAKE     FAIR      38  32  77 S5        30.10S
WADENA         CLEAR     41  30  65 CALM      30.09S
GLENWOOD       CLEAR     39  30  70 SW5       30.11F
APPLETON       CLEAR     36  36 100 CALM      30.11F
BENSON         CLEAR     34  30  86 CALM      30.11F
ORTONVILLE     CLEAR     39  32  75 SW5       30.11S
MADISON        CLEAR     37  32  81 SW5       30.12S
WILLMAR        FAIR      36  32  87 CALM      30.13S
$$
MNZ033>034-036-042>043-049>051-058-059-021100-
   Central Minnesota

CITY           SKY/WX    TMP DP  RH WIND       PRES   REMARKS
ST CLOUD       CLEAR     34  32  92 CALM      30.12S
SAUK CENTRE    FAIR      33  32  94 CALM      30.11F
PAYNESVILLE    CLEAR     32  32  99 CALM      30.13S
AITKIN         CLEAR     32  28  86 CALM      30.10S
PINE RIVER     CLEAR     32  30  93 CALM      30.13S
BRAINERD       CLEAR     32  29  88 CALM      30.12S
STAPLES        CLEAR     37  30  75 CALM      30.10S
LONG PRAIRIE   FAIR      34  32  93 CALM      30.11S
LITTLE FALLS   CLEAR     32  30  93 CALM      30.12S
LITCHFIELD     CLEAR     39  37  93 CALM      30.12F
BUFFALO        CLEAR     36  33  89 CALM      30.13S
MAPLE LAKE     CLEAR     35  33  96 CALM      30.13S
HUTCHINSON     PTCLDY    37  36  97 CALM      30.13S
$$
MNZ037-044-045-052-053-021100-
   East Central Minnesota

CITY           SKY/WX    TMP DP  RH WIND       PRES   REMARKS
PRINCETON      CLEAR     32  30  93 CALM      30.12F
MORA           CLEAR     32  30  93 CALM      30.14S
CAMBRIDGE      CLEAR     34  27  75 CALM      30.10F
RUSH CITY      CLEAR     32  31  94 CALM      30.12F
MOOSE LAKE     CLEAR     32  30  93 CALM      30.11F
HINCKLEY       FAIR      32  32 100 N3        30.12F
CLOQUET        CLEAR     28  27  93 NW1       30.12S
MCGREGOR       CLEAR     34  32  93 CALM      30.13S
$$
MNZ071>073-080-081-089-090-097-098-021100-
   Southwest Minnesota

CITY           SKY/WX    TMP DP  RH WIND       PRES   REMARKS
MONTEVIDEO     CLEAR     39  28  65 CALM      30.13S
GRANITE FALLS  CLEAR     38  33  79 SW3       30.13F
CANBY          CLEAR     41  34  77 SW3       30.13F
MARSHALL       CLEAR     38  32  79 SW5       30.12F
REDWOOD FALLS  CLEAR     43  31  62 W5        30.12F
OLIVIA         CLEAR     36  30  80 CALM      30.11F
PIPESTONE      CLEAR     39  32  75 VRB2      30.12F
WINDOM         CLEAR     37  36  93 CALM      30.12S
WORTHINGTON    CLEAR     39  34  82 W5        30.13S
JACKSON        CLEAR     41  34  75 NW5       30.12S
TRACY          CLEAR     44  33  67 W6        30.12F
SLAYTON        CLEAR     37  33  84 W7        30.13S
$$
MNZ065>067-074>077-082>085-091>093-021100-
   South Central Minnesota

CITY           SKY/WX    TMP DP  RH WIND       PRES   REMARKS
MANKATO        CLEAR     43  34  70 N3        30.10F
NEW ULM        CLEAR     37  34  87 W3        30.11F
ST JAMES       CLEAR     36  30  80 CALM      30.13S
FAIRMONT       CLEAR     39  30  70 NW3       30.10F
GLENCOE        CLEAR     38  37  93 CALM      30.11F
FARIBAULT      CLEAR     36  36 100 CALM      30.11S
OWATONNA       FOG       37  36  93 CALM      30.10S VSB 1/4
WASECA         CLEAR     36  32  87 CALM      30.11S
ALBERT LEA     CLEAR     39  37  93 CALM      30.10S
$$
MNZ078>079-086>088-094>096-021100-
   Southeast Minnesota

CITY           SKY/WX    TMP DP  RH WIND       PRES   REMARKS
ROCHESTER      PTCLDY    41  39  93 S5        30.11S
RED WING       MOCLDY    37  36  93 CALM      30.10S
STANTON        CLEAR     37  34  90 CALM      30.10S
DODGE CENTER   PTCLDY    37  36  93 CALM      30.10S
WINONA         CLEAR     37  37 100 CALM      30.12S
AUSTIN         CLEAR     39  37  93 CALM      30.10S FOG
PRESTON        PTCLDY    41  38  88 CALM      30.11S
$$
ABBREVIATIONS USED IN REMARKS
   TC - TEMPERATURES IN CELSIUS
  WCI - WIND CHILL INDEX
   HX - HEAT INDEX
  VSB - VISIBILITY
$$




USA.gov is the U.S. government's official web portal to all federal, state and local government web resources and services.